When you browse on this site, cookies collect data to enhance your experience and personalize the content and advertising you see.
Visit our Privacy Policy to learn more. By continuing to use the site, you agree to this use of cookies and data.
  • In Spain
  • List of Countries
  • For 7 days
  • Water Temperature
  • Weather Map
  • Weather Widgets
  • user-avatar
    Login

    Hourly Weather Adelaide

    Today, 15 December, Sunday

    Time Temperature Precipitation Wind Pressure Humidity
    00:00 +16°C° 0 mm 1 mps 756 mmHg 72%
    01:00 +16°C° 0 mm 1 mps 756 mmHg 72%
    02:00 +15°C° 0 mm 0 mps 756 mmHg 71%
    03:00 +15°C° 0 mm 0 mps 755 mmHg 73%
    04:00 +18°C° 0 mm 1 mps 755 mmHg 69%
    05:00 +19°C° 0 mm 1 mps 755 mmHg 65%
    06:00 +19°C° 0 mm 1 mps 755 mmHg 61%
    07:00 +21°C° 0 mm 2 mps 755 mmHg 53%
    08:00 +24°C° 0 mm 2 mps 755 mmHg 45%
    09:00 +26°C° 0 mm 2 mps 755 mmHg 37%
    10:00 +27°C° 0 mm 2 mps 755 mmHg 34%
    11:00 +27°C° 0 mm 3 mps 755 mmHg 31%
    12:00 +28°C° 0 mm 3 mps 755 mmHg 29%
    13:00 +28°C° 0 mm 3 mps 754 mmHg 28%
    14:00 +28°C° 0 mm 3 mps 754 mmHg 27%
    15:00 +29°C° 0 mm 3 mps 754 mmHg 26%
    16:00 +28°C° 0 mm 3 mps 754 mmHg 28%
    17:00 +27°C° 0 mm 3 mps 754 mmHg 30%
    18:00 +26°C° 0 mm 3 mps 755 mmHg 31%
    19:00 +25°C° 0 mm 2 mps 755 mmHg 34%
    20:00 +23°C° 0 mm 1 mps 755 mmHg 36%
    21:00 +22°C° 0 mm 1 mps 755 mmHg 35%
    22:00 +22°C° 0 mm 1 mps 755 mmHg 35%
    23:00 +22°C° 0 mm 1 mps 755 mmHg 36%

    Tomorrow, 16 December, Monday

    Time Temperature Precipitation Wind Pressure Humidity
    00:00 +21°C° 0 mm 1 mps 755 mmHg 36%
    01:00 +21°C° 0 mm 1 mps 755 mmHg 34%
    02:00 +21°C° 0 mm 1 mps 755 mmHg 32%
    03:00 +21°C° 0 mm 1 mps 754 mmHg 30%
    04:00 +22°C° 0 mm 1 mps 755 mmHg 30%
    05:00 +23°C° 0 mm 1 mps 756 mmHg 30%
    06:00 +24°C° 0 mm 1 mps 756 mmHg 30%
    07:00 +27°C° 0 mm 1 mps 756 mmHg 27%
    08:00 +29°C° 0 mm 1 mps 756 mmHg 24%
    09:00 +32°C° 0 mm 1 mps 756 mmHg 22%
    10:00 +33°C° 0 mm 1 mps 756 mmHg 20%
    11:00 +34°C° 0 mm 2 mps 756 mmHg 19%
    12:00 +35°C° 0 mm 3 mps 757 mmHg 17%
    13:00 +35°C° 0 mm 3 mps 756 mmHg 17%
    14:00 +35°C° 0 mm 4 mps 756 mmHg 18%
    15:00 +35°C° 0 mm 4 mps 755 mmHg 18%
    16:00 +34°C° 0 mm 4 mps 755 mmHg 21%
    17:00 +32°C° 0 mm 4 mps 756 mmHg 23%
    18:00 +30°C° 0 mm 4 mps 756 mmHg 25%
    19:00 +29°C° 0 mm 4 mps 756 mmHg 27%
    20:00 +27°C° 0 mm 4 mps 757 mmHg 28%
    21:00 +26°C° 0 mm 3 mps 757 mmHg 30%
    22:00 +25°C° 0 mm 3 mps 757 mmHg 32%
    23:00 +24°C° 0 mm 3 mps 757 mmHg 34%

    Day after tomorrow, 17 December, Tuesday

    Time Temperature Precipitation Wind Pressure Humidity
    00:00 +24°C° 0 mm 3 mps 757 mmHg 36%
    01:00 +24°C° 0 mm 3 mps 757 mmHg 35%
    02:00 +24°C° 0 mm 2 mps 756 mmHg 34%
    03:00 +24°C° 0 mm 2 mps 756 mmHg 33%
    04:00 +25°C° 0 mm 2 mps 757 mmHg 33%
    05:00 +26°C° 0 mm 2 mps 757 mmHg 32%
    06:00 +27°C° 0 mm 2 mps 757 mmHg 32%
    07:00 +30°C° 0 mm 2 mps 757 mmHg 28%
    08:00 +32°C° 0 mm 2 mps 757 mmHg 24%
    09:00 +36°C° 0 mm 2 mps 757 mmHg 20%
    10:00 +37°C° 0 mm 2 mps 757 mmHg 19%
    11:00 +38°C° 0 mm 2 mps 757 mmHg 18%
    12:00 +39°C° 0 mm 2 mps 756 mmHg 16%
    13:00 +40°C° 0 mm 2 mps 755 mmHg 16%
    14:00 +40°C° 0 mm 3 mps 755 mmHg 15%
    15:00 +40°C° 0 mm 3 mps 754 mmHg 14%
    16:00 +39°C° 0 mm 3 mps 754 mmHg 15%
    17:00 +38°C° 0 mm 3 mps 754 mmHg 15%
    18:00 +37°C° 0 mm 3 mps 754 mmHg 16%
    19:00 +35°C° 0 mm 3 mps 755 mmHg 19%
    20:00 +33°C° 0 mm 3 mps 755 mmHg 23%
    21:00 +30°C° 0 mm 3 mps 755 mmHg 26%
    22:00 +30°C° 0 mm 3 mps 755 mmHg 27%
    23:00 +30°C° 0 mm 3 mps 755 mmHg 27%

    18 December, Wednesday

    Time Temperature Precipitation Wind Pressure Humidity
    00:00 +29°C° 0 mm 3 mps 755 mmHg 28%
    01:00 +29°C° 0 mm 2 mps 755 mmHg 27%
    02:00 +29°C° 0 mm 2 mps 754 mmHg 26%
    03:00 +29°C° 0 mm 2 mps 754 mmHg 25%
    04:00 +30°C° 0 mm 3 mps 754 mmHg 24%
    05:00 +33°C° 0 mm 3 mps 755 mmHg 23%
    06:00 +34°C° 0 mm 3 mps 755 mmHg 21%
    07:00 +36°C° 0 mm 4 mps 755 mmHg 19%
    08:00 +38°C° 0 mm 4 mps 755 mmHg 17%
    09:00 +41°C° 0 mm 5 mps 755 mmHg 15%
    10:00 +42°C° 0 mm 4 mps 754 mmHg 15%
    11:00 +43°C° 0 mm 4 mps 754 mmHg 15%
    12:00 +43°C° 0 mm 4 mps 753 mmHg 14%
    13:00 +43°C° 0 mm 4 mps 753 mmHg 14%
    14:00 +43°C° 0 mm 4 mps 753 mmHg 14%
    15:00 +43°C° 0 mm 3 mps 752 mmHg 14%
    16:00 +42°C° 0 mm 3 mps 752 mmHg 15%
    17:00 +40°C° 0 mm 3 mps 752 mmHg 16%
    18:00 +39°C° 0 mm 2 mps 753 mmHg 16%
    19:00 +37°C° 0 mm 2 mps 753 mmHg 20%
    20:00 +34°C° 0 mm 2 mps 753 mmHg 23%
    21:00 +31°C° 0 mm 2 mps 753 mmHg 26%
    22:00 +31°C° 0 mm 2 mps 753 mmHg 26%
    23:00 +30°C° 0 mm 2 mps 753 mmHg 26%

    19 December, Thursday

    Time Temperature Precipitation Wind Pressure Humidity
    00:00 +30°C° 0 mm 1 mps 753 mmHg 26%
    01:00 +30°C° 0 mm 1 mps 753 mmHg 26%
    02:00 +30°C° 0 mm 1 mps 753 mmHg 26%
    03:00 +30°C° 0 mm 1 mps 753 mmHg 26%
    04:00 +30°C° 0 mm 1 mps 753 mmHg 25%
    05:00 +31°C° 0 mm 1 mps 753 mmHg 25%
    06:00 +32°C° 0 mm 1 mps 754 mmHg 25%
    07:00 +34°C° 0 mm 1 mps 754 mmHg 22%
    08:00 +37°C° 0 mm 1 mps 754 mmHg 20%
    09:00 +41°C° 0 mm 1 mps 754 mmHg 17%
    10:00 +41°C° 0 mm 2 mps 754 mmHg 17%
    11:00 +41°C° 0 mm 2 mps 753 mmHg 16%
    12:00 +43°C° 0 mm 3 mps 753 mmHg 16%
    13:00 +43°C° 0 mm 3 mps 752 mmHg 16%
    14:00 +44°C° 0 mm 3 mps 752 mmHg 15%
    15:00 +45°C° 0 mm 3 mps 751 mmHg 14%
    16:00 +43°C° 0 mm 3 mps 751 mmHg 16%
    17:00 +42°C° 0 mm 3 mps 751 mmHg 17%
    18:00 +40°C° 0 mm 3 mps 751 mmHg 18%
    19:00 +38°C° 0 mm 2 mps 752 mmHg 21%
    20:00 +35°C° 0 mm 2 mps 752 mmHg 23%
    21:00 +32°C° 0 mm 2 mps 752 mmHg 26%
    22:00 +34°C° 0 mm 2 mps 752 mmHg 25%
    23:00 +34°C° 0 mm 2 mps 752 mmHg 23%

    20 December, Friday

    Time Temperature Precipitation Wind Pressure Humidity
    00:00 +34°C° 0 mm 3 mps 751 mmHg 22%
    01:00 +34°C° 0 mm 3 mps 751 mmHg 21%
    02:00 +34°C° 0 mm 3 mps 751 mmHg 21%
    03:00 +34°C° 0 mm 4 mps 750 mmHg 21%
    04:00 +35°C° 0 mm 4 mps 750 mmHg 21%
    05:00 +36°C° 0 mm 4 mps 751 mmHg 21%
    06:00 +37°C° 0 mm 4 mps 751 mmHg 21%
    07:00 +39°C° 0 mm 5 mps 751 mmHg 21%
    08:00 +41°C° 0 mm 6 mps 751 mmHg 21%
    09:00 +43°C° 0 mm 8 mps 751 mmHg 20%
    10:00 +43°C° 0 mm 7 mps 751 mmHg 21%
    11:00 +43°C° 0 mm 7 mps 751 mmHg 22%
    12:00 +42°C° 0 mm 6 mps 750 mmHg 22%
    13:00 +42°C° 0 mm 6 mps 750 mmHg 23%
    14:00 +41°C° 0 mm 6 mps 750 mmHg 23%
    15:00 +41°C° 0 mm 6 mps 749 mmHg 24%
    16:00 +39°C° 0 mm 6 mps 750 mmHg 29%
    17:00 +35°C° 0 mm 5 mps 751 mmHg 34%
    18:00 +33°C° 0 mm 4 mps 751 mmHg 39%
    19:00 +30°C° 0.1 mm 5 mps 752 mmHg 46%
    20:00 +27°C° 0.1 mm 5 mps 753 mmHg 53%
    21:00 +24°C° 0.1 mm 6 mps 754 mmHg 60%
    22:00 +23°C° 0 mm 6 mps 754 mmHg 62%
    23:00 +23°C° 0 mm 5 mps 754 mmHg 64%
    Show more